User: anonymous   Login
Location: Aiyekoto
(8.4333°N, 4.3667°E)
Time: 16:25:29
(UTC+00:00)
Language:

H-2A R/B - Orbit

View from above orbital plane
View from above orbital plane
View from above satellite
View from above satellite

Ground track
Ground track

The orbit data is extracted from the following two-line orbital elements,

1 38341U 12025E   20224.87095749 +.00000116 +00000-0 +21046-4 0  9993
2 38341 098.5068 023.4937 0056531 054.7295 305.9187 14.84056850445587
Epoch (UTC): 11 August 2020 20:54:10
Eccentricity: 0.0056531
inclination: 98.5068°
perigee height: 577 km
apogee height: 656 km
right ascension of ascending node: 23.4937°
argument of perigee: 54.7295°
revolutions per day: 14.84056850
mean anomaly at epoch: 305.9187°
orbit number at epoch: 44558

The dashed part of the orbit path shows where the satellite is in the earth's shadow,  

DLR